CW9585 Weather Reports


Display with metric or nautical units.
time (UTC)temp
F
wind
direction
speed
MPH
gust
MPH
rain 1hr
in
rain 24hr
in
rain mn
in
humidity
%
barometer
mb
20260510230704 69 104 4.0 7.0 0.00 0.00 0.00 69 1013.9
20260510230204 69 109 3.0 8.0 0.00 0.00 0.00 69 1014.0
20260510225704 69 113 4.0 8.0 0.00 0.00 0.00 70 1014.0
20260510225204 69 109 4.0 8.0 0.00 0.00 0.00 69 1014.1
20260510224204 69 106 4.0 8.0 0.00 0.00 0.00 70 1014.2
20260510223706 69 123 4.0 8.0 0.00 0.00 0.00 70 1014.2
20260510223204 69 100 3.0 8.0 0.00 0.00 0.00 69 1014.4
20260510222204 69 55 4.0 7.0 0.00 0.00 0.00 70 1014.5
20260510221705 68 135 3.0 7.0 0.00 0.00 0.00 71 1014.6
20260510221204 68 92 3.0 7.0 0.00 0.00 0.00 73 1014.6
20260510220704 68 127 3.0 7.0 0.00 0.00 0.00 72 1014.7
20260510220205 68 89 3.0 9.0 0.00 0.00 0.00 72 1014.7
20260510215704 67 186 3.0 9.0 0.00 0.00 0.00 73 1014.8
20260510215204 67 202 4.0 8.0 0.00 0.00 0.00 73 1014.9
20260510214705 67 72 4.0 9.0 0.00 0.00 0.00 74 1014.9
20260510214205 66 135 3.0 9.0 0.00 0.00 0.00 74 1015.1
20260510213705 66 119 3.0 9.0 0.00 0.00 0.00 74 1015.0
20260510213204 66 96 4.0 9.0 0.00 0.00 0.00 74 1015.1
20260510211704 65 111 6.0 9.0 0.00 0.00 0.00 74 1015.3
20260510210704 66 110 4.0 11.0 0.00 0.00 0.00 73 1015.4
20260510210204 66 173 4.0 11.0 0.00 0.00 0.00 74 1015.4
20260510205704 65 78 5.0 11.0 0.00 0.00 0.00 75 1015.4
20260510205204 65 128 4.0 9.0 0.00 0.00 0.00 75 1015.4
20260510204705 65 94 4.0 9.0 0.00 0.00 0.00 75 1015.5
20260510203705 64 146 5.0 10.0 0.00 0.00 0.00 75 1015.6
20260510203206 64 167 5.0 10.0 0.00 0.00 0.00 75 1015.7
20260510202705 64 113 4.0 9.0 0.00 0.00 0.00 74 1015.8
20260510202204 64 193 4.0 11.0 0.00 0.00 0.00 75 1015.8
20260510201705 64 137 4.0 11.0 0.00 0.00 0.00 76 1015.8
20260510201205 64 115 4.0 11.0 0.00 0.00 0.00 76 1015.8
20260510200704 63 194 4.0 8.0 0.00 0.00 0.00 76 1015.9
20260510200205 63 121 3.0 7.0 0.00 0.00 0.00 76 1016.0
20260510195704 63 179 4.0 7.0 0.00 0.00 0.00 75 1016.0
20260510194704 64 223 4.0 11.0 0.00 0.00 0.00 77 1016.1
20260510194205 63 121 5.0 9.0 0.00 0.00 0.00 77 1016.1
20260510193704 63 128 4.0 9.0 0.00 0.00 0.00 77 1016.2
20260510193204 63 187 3.0 10.0 0.00 0.00 0.00 77 1016.3
20260510192705 63 150 3.0 10.0 0.00 0.00 0.00 78 1016.2
20260510192204 62 173 3.0 10.0 0.00 0.00 0.00 80 1016.3
20260510191204 61 257 4.0 9.0 0.00 0.00 0.00 79 1016.2
20260510190705 61 194 4.0 9.0 0.00 0.00 0.00 79 1016.3
20260510190205 61 217 3.0 9.0 0.00 0.00 0.00 80 1016.5
20260510185704 61 153 4.0 8.0 0.00 0.00 0.00 79 1016.5
20260510184704 61 192 3.0 7.0 0.00 0.00 0.00 80 1016.6
20260510184204 61 160 3.0 7.0 0.00 0.00 0.00 81 1016.6
20260510183704 61 126 3.0 9.0 0.00 0.00 0.00 82 1016.7
20260510183204 60 156 4.0 9.0 0.00 0.00 0.00 82 1016.7
20260510182704 60 104 4.0 9.0 0.00 0.00 0.00 83 1016.8
20260510182205 60 195 3.0 7.0 0.00 0.00 0.00 83 1016.8
20260510181705 59 206 3.0 7.0 0.00 0.00 0.00 84 1016.9
20260510181205 59 224 3.0 7.0 0.00 0.00 0.00 84 1016.8
20260510180704 59 199 3.0 7.0 0.00 0.00 0.00 84 1016.8
20260510180205 59 144 3.0 7.0 0.00 0.00 0.00 84 1016.9
20260510175204 59 194 3.0 6.0 0.00 0.00 0.00 85 1016.9
20260510174704 59 167 3.0 7.0 0.00 0.00 0.00 85 1016.9
20260510174205 59 192 3.0 7.0 0.00 0.00 0.00 86 1016.9
20260510173704 59 137 2.0 7.0 0.00 0.00 0.00 86 1016.9
20260510173205 58 219 2.0 7.0 0.00 0.00 0.00 86 1016.9
20260510172704 58 155 2.0 9.0 0.00 0.00 0.00 87 1016.8
20260510172204 58 128 3.0 9.0 0.00 0.00 0.00 86 1016.8
20260510171705 58 182 3.0 9.0 0.00 0.00 0.00 86 1016.8
20260510171204 58 192 3.0 6.0 0.00 0.00 0.00 86 1016.7
20260510165704 58 134 3.0 7.0 0.00 0.00 0.00 86 1016.7
20260510165204 58 116 3.0 8.0 0.00 0.00 0.00 86 1016.8
20260510164705 58 152 3.0 8.0 0.00 0.00 0.00 87 1016.7
20260510163704 58 212 4.0 7.0 0.00 0.00 0.00 88 1016.7
20260510163204 58 142 3.0 7.0 0.00 0.00 0.00 89 1016.7
20260510162704 57 186 3.0 8.0 0.00 0.00 0.00 89 1016.6
20260510162204 57 159 4.0 8.0 0.00 0.00 0.00 89 1016.5
20260510161704 57 151 4.0 8.0 0.00 0.00 0.00 89 1016.5
20260510161205 57 124 2.0 5.0 0.00 0.00 0.00 89 1016.5
20260510160705 57 113 2.0 5.0 0.00 0.00 0.00 90 1016.5
20260510160204 56 147 2.0 5.0 0.00 0.00 0.00 90 1016.6
20260510155205 56 122 1.0 5.0 0.00 0.00 0.00 89 1016.5
20260510154705 56 139 1.0 4.0 0.00 0.00 0.00 89 1016.5
20260510154206 56 115 1.0 4.0 0.00 0.00 0.00 89 1016.6
20260510153705 56 109 1.0 3.0 0.00 0.00 0.00 89 1016.3
20260510153205 56 174 1.0 3.0 0.00 0.00 0.00 89 1016.4
20260510152704 56 174 1.0 3.0 0.00 0.00 0.00 90 1016.3
20260510152204 55 174 0.0 2.0 0.00 0.00 0.00 89 1016.3
20260510151704 55 145 0.0 2.0 0.00 0.00 0.00 89 1016.3
20260510151204 55 231 0.0 1.0 0.00 0.00 0.00 90 1016.3
20260510150704 55 231 0.0 3.0 0.00 0.00 0.00 89 1016.3
20260510150205 55 231 0.0 3.0 0.00 0.00 0.00 89 1016.2
20260510145705 55 231 1.0 3.0 0.00 0.00 0.00 89 1016.2
20260510145204 55 231 1.0 2.0 0.00 0.00 0.00 89 1016.3
20260510144704 55 231 0.0 4.0 0.00 0.00 0.00 89 1016.2
20260510144205 55 231 1.0 4.0 0.00 0.00 0.00 89 1016.2
20260510143205 55 121 0.0 0.0 0.00 0.00 0.00 89 1016.2
20260510142204 55 121 0.0 0.0 0.00 0.00 0.00 89 1016.1
20260510141705 55 286 0.0 0.0 0.00 0.00 0.00 89 1016.1
20260510141205 55 286 0.0 0.0 0.00 0.00 0.00 89 1016.0
20260510140705 54 286 0.0 0.0 0.00 0.00 0.00 89 1016.0
20260510140204 54 286 0.0 0.0 0.00 0.00 0.00 89 1015.9
20260510135704 54 286 0.0 0.0 0.00 0.00 0.00 89 1015.9
20260510134704 54 286 0.0 0.0 0.00 0.00 0.00 89 1015.8
20260510134206 54 286 0.0 0.0 0.00 0.00 0.00 89 1015.7
20260510133704 54 286 0.0 0.0 0.00 0.00 0.00 89 1015.6
20260510132205 54 286 0.0 2.0 0.00 0.00 0.00 89 1015.4
20260510131704 54 286 0.0 2.0 0.00 0.00 0.00 89 1015.4
20260510131206 54 286 0.0 2.0 0.00 0.00 0.00 89 1015.3
20260510130705 54 286 0.0 2.0 0.00 0.00 0.00 90 1015.3
20260510130204 54 286 0.0 2.0 0.00 0.00 0.00 90 1015.4
20260510125704 54 286 1.0 2.0 0.00 0.00 0.00 89 1015.3
20260510125205 55 286 1.0 2.0 0.00 0.00 0.00 89 1015.3
20260510124705 55 286 0.0 3.0 0.00 0.00 0.00 89 1015.3
20260510123705 55 286 1.0 3.0 0.00 0.00 0.00 90 1015.3
20260510123204 55 286 1.0 3.0 0.00 0.00 0.00 90 1015.3
20260510122205 55 289 1.0 3.0 0.00 0.00 0.00 90 1015.3
20260510121206 55 295 1.0 3.0 0.00 0.00 0.00 89 1015.4
20260510120706 55 295 1.0 3.0 0.00 0.00 0.00 89 1015.3
20260510120204 55 295 1.0 3.0 0.00 0.00 0.00 89 1015.3
20260510115705 55 295 1.0 3.0 0.00 0.00 0.00 89 1015.3
20260510115204 55 283 0.0 0.0 0.00 0.00 0.00 89 1015.3
20260510114704 55 279 0.0 0.0 0.00 0.00 0.00 89 1015.4
20260510114205 55 279 0.0 0.0 0.00 0.00 0.00 89 1015.3
20260510113204 54 279 0.0 0.0 0.00 0.00 0.00 89 1015.3
20260510112705 54 279 0.0 0.0 0.00 0.00 0.00 89 1015.3
20260510112204 54 279 0.0 0.0 0.00 0.00 0.00 89 1015.3
20260510111704 54 279 0.0 0.0 0.00 0.00 0.00 89 1015.3
20260510111204 54 279 0.0 0.0 0.00 0.00 0.00 89 1015.3
20260510110705 54 325 0.0 0.0 0.00 0.00 0.00 89 1015.3
20260510110205 54 325 0.0 0.0 0.00 0.00 0.00 89 1015.2
20260510105704 54 325 0.0 0.0 0.00 0.00 0.00 89 1015.2
20260510105204 54 325 0.0 0.0 0.00 0.00 0.00 89 1015.3
20260510104705 54 325 0.0 0.0 0.00 0.00 0.00 89 1015.2
20260510104205 54 325 0.0 0.0 0.00 0.00 0.00 89 1015.2
20260510103705 54 325 0.0 0.0 0.00 0.00 0.00 89 1015.2
20260510103206 54 325 0.0 0.0 0.00 0.00 0.00 89 1015.3
20260510102704 54 325 0.0 0.0 0.00 0.00 0.00 89 1015.2
20260510101704 54 325 0.0 0.0 0.00 0.00 0.00 89 1015.3
20260510100705 54 325 0.0 0.0 0.00 0.00 0.00 89 1015.2
20260510100204 54 325 0.0 0.0 0.00 0.00 0.00 89 1015.2
20260510095704 54 325 0.0 0.0 0.00 0.00 0.00 89 1015.2
20260510095204 54 325 0.0 0.0 0.00 0.00 0.00 89 1015.3
20260510094204 54 325 0.0 0.0 0.00 0.00 0.00 89 1015.2
20260510093704 54 325 0.0 0.0 0.00 0.00 0.00 89 1015.2
20260510093204 54 325 0.0 0.0 0.00 0.00 0.00 89 1015.3
20260510092705 54 325 0.0 0.0 0.00 0.00 0.00 88 1015.2
20260510092205 54 325 0.0 2.0 0.00 0.00 0.00 88 1015.3
20260510091704 54 325 0.0 4.0 0.00 0.00 0.00 88 1015.3
20260510091204 54 325 1.0 4.0 0.00 0.00 0.00 88 1015.3
20260510090704 54 325 2.0 4.0 0.00 0.00 0.00 88 1015.3
20260510090205 54 318 2.0 4.0 0.00 0.00 0.00 88 1015.3
20260510085704 55 325 2.0 4.0 0.00 0.00 0.00 88 1015.3
20260510083705 55 286 1.0 3.0 0.00 0.00 0.00 89 1015.6
20260510083204 55 286 1.0 3.0 0.00 0.00 0.00 89 1015.6
20260510082704 55 286 1.0 3.0 0.00 0.00 0.00 89 1015.5
20260510082205 55 287 1.0 3.0 0.00 0.00 0.00 89 1015.5
20260510081705 55 288 1.0 3.0 0.00 0.00 0.00 89 1015.6
20260510081204 56 288 1.0 2.0 0.00 0.00 0.00 89 1015.5
20260510080705 56 288 0.0 3.0 0.00 0.00 0.00 89 1015.5
20260510080205 56 286 0.0 3.0 0.00 0.00 0.00 89 1015.5
20260510075705 56 286 0.0 3.0 0.00 0.00 0.00 89 1015.6
20260510075205 56 250 0.0 3.0 0.00 0.00 0.00 89 1015.5
20260510074705 56 250 0.0 0.0 0.00 0.00 0.00 89 1015.6
20260510074204 56 241 0.0 0.0 0.00 0.00 0.00 88 1015.5
20260510073704 56 241 0.0 1.0 0.00 0.00 0.00 88 1015.5
20260510073205 56 236 0.0 1.0 0.00 0.00 0.00 88 1015.5
20260510072704 56 251 0.0 1.0 0.00 0.00 0.00 88 1015.5
20260510072204 56 134 0.0 1.0 0.00 0.00 0.00 87 1015.5
20260510071204 56 134 0.0 1.0 0.00 0.00 0.00 87 1015.6
20260510070704 56 134 0.0 0.0 0.00 0.00 0.00 86 1015.6
20260510070205 56 134 0.0 0.0 0.00 0.00 0.00 86 1015.6
20260510065704 56 134 0.0 0.0 0.00 0.00 0.00 86 1015.6
20260510064706 56 134 0.0 0.0 0.00 0.00 0.00 86 1015.7
20260510064205 56 134 0.0 0.0 0.00 0.00 0.00 86 1015.7
20260510063704 57 134 0.0 0.0 0.00 0.00 0.00 86 1015.7
20260510063204 57 134 0.0 0.0 0.00 0.00 0.00 86 1015.7
20260510062704 57 134 0.0 0.0 0.00 0.00 0.00 86 1015.7
20260510062206 57 134 0.0 0.0 0.00 0.00 0.00 86 1015.6
20260510061704 57 134 0.0 0.0 0.00 0.00 0.00 86 1015.6
20260510061204 57 134 0.0 2.0 0.00 0.00 0.00 86 1015.7
20260510060705 57 134 0.0 2.0 0.00 0.00 0.00 86 1015.7
20260510060204 57 134 0.0 3.0 0.00 0.00 0.00 86 1015.7
20260510055704 57 134 0.0 3.0 0.00 0.00 0.00 86 1015.6
20260510055204 57 134 0.0 3.0 0.00 0.00 0.00 86 1015.6
20260510054705 57 107 0.0 2.0 0.00 0.00 0.00 85 1015.7
20260510054205 58 107 0.0 3.0 0.00 0.00 0.00 85 1015.7
20260510053705 58 107 0.0 3.0 0.00 0.00 0.00 85 1015.7
20260510053204 58 116 0.0 3.0 0.00 0.00 0.00 85 1015.7
20260510052704 58 69 0.0 3.0 0.00 0.00 0.00 85 1015.7
20260510052204 58 132 1.0 3.0 0.00 0.00 0.00 85 1015.7
20260510051705 58 109 1.0 3.0 0.00 0.00 0.00 85 1015.6
20260510051204 58 116 0.0 3.0 0.00 0.00 0.00 85 1015.5
20260510050206 58 77 1.0 5.0 0.00 0.00 0.00 85 1015.5
20260510045205 58 105 1.0 4.0 0.00 0.00 0.00 85 1015.4
20260510044705 59 96 1.0 5.0 0.00 0.00 0.00 85 1015.3
20260510043704 59 120 2.0 6.0 0.00 0.00 0.00 85 1015.2
20260510043204 59 116 2.0 6.0 0.00 0.00 0.00 85 1015.2
20260510042704 59 135 1.0 6.0 0.00 0.00 0.00 84 1015.1
20260510042206 59 146 1.0 7.0 0.00 0.00 0.00 84 1015.0
20260510041204 59 138 2.0 7.0 0.00 0.00 0.00 84 1015.0
20260510040704 59 125 2.0 7.0 0.00 0.00 0.00 84 1014.9
20260510040204 60 120 2.0 7.0 0.00 0.00 0.00 83 1014.8
20260510035204 60 112 1.0 6.0 0.00 0.00 0.00 83 1014.7
20260510034706 60 120 1.0 6.0 0.00 0.00 0.00 83 1014.7
20260510034206 60 112 2.0 6.0 0.00 0.00 0.00 83 1014.7
20260510033204 60 185 2.0 5.0 0.00 0.00 0.00 82 1014.5
20260510032704 61 133 2.0 8.0 0.00 0.00 0.00 82 1014.5
20260510032204 61 118 3.0 9.0 0.00 0.00 0.00 82 1014.6
20260510031704 61 120 5.0 9.0 0.00 0.00 0.00 81 1014.5
20260510031204 61 118 4.0 7.0 0.00 0.00 0.00 81 1014.5
20260510030704 62 143 3.0 7.0 0.00 0.00 0.00 80 1014.4
20260510025705 62 123 1.0 7.0 0.00 0.00 0.00 80 1014.4
20260510024705 62 134 1.0 7.0 0.00 0.00 0.00 79 1014.3
20260510024204 62 153 2.0 6.0 0.00 0.00 0.00 78 1014.2
20260510023704 63 155 2.0 7.0 0.00 0.00 0.00 78 1014.3
20260510023205 63 140 2.0 9.0 0.00 0.00 0.00 78 1014.1
20260510022705 63 186 2.0 9.0 0.00 0.00 0.00 77 1014.2
20260510022204 64 161 3.0 9.0 0.00 0.00 0.00 77 1014.2
20260510021704 64 120 3.0 8.0 0.00 0.00 0.00 76 1014.2
20260510021205 64 130 2.0 9.0 0.00 0.00 0.00 76 1014.2
20260510020705 64 202 3.0 9.0 0.00 0.00 0.00 75 1014.1
20260510020205 65 161 4.0 9.0 0.00 0.00 0.00 74 1014.2
20260510015704 65 123 5.0 10.0 0.00 0.00 0.00 74 1014.1
20260510015205 65 167 5.0 10.0 0.00 0.00 0.00 73 1014.1
20260510014205 67 131 3.0 7.0 0.00 0.00 0.00 71 1014.1
20260510013704 67 101 2.0 7.0 0.00 0.00 0.00 70 1014.0
20260510013204 67 117 3.0 6.0 0.00 0.00 0.00 70 1014.1
20260510012704 67 107 2.0 7.0 0.00 0.00 0.00 70 1013.9
20260510012204 67 57 1.0 8.0 0.00 0.00 0.00 70 1014.0
20260510011704 68 134 3.0 8.0 0.00 0.00 0.00 70 1014.0
20260510011204 67 101 3.0 8.0 0.00 0.00 0.00 69 1013.9
20260510010705 68 65 2.0 6.0 0.00 0.00 0.00 68 1013.9
20260510010205 69 78 2.0 5.0 0.00 0.00 0.00 68 1014.0
20260510005705 69 220 2.0 5.0 0.00 0.00 0.00 67 1013.9
20260510005205 69 173 2.0 5.0 0.00 0.00 0.00 67 1014.0
20260510004206 69 94 2.0 5.0 0.00 0.00 0.00 69 1013.9
20260510003705 69 98 2.0 8.0 0.00 0.00 0.00 69 1014.0
20260510002704 69 119 3.0 8.0 0.00 0.00 0.00 69 1013.9
20260510002206 68 148 3.0 7.0 0.00 0.00 0.00 70 1014.0
20260510001704 69 111 3.0 7.0 0.00 0.00 0.00 68 1014.0
20260510001205 69 120 3.0 7.0 0.00 0.00 0.00 67 1013.9
20260510000205 69 127 3.0 7.0 0.00 0.00 0.00 66 1013.9
20260509235704 69 178 2.0 5.0 0.00 0.00 0.00 66 1013.9
20260509235204 69 146 2.0 5.0 0.00 0.00 0.00 66 1013.9
20260509234705 69 144 2.0 7.0 0.00 0.00 0.00 65 1013.9
20260509234204 70 145 3.0 8.0 0.00 0.00 0.00 64 1014.0
20260509233704 70 88 3.0 8.0 0.00 0.00 0.00 64 1013.9
20260509233204 70 155 2.0 8.0 0.00 0.00 0.00 63 1013.9
20260509232705 70 178 2.0 6.0 0.00 0.00 0.00 64 1013.9
20260509232204 70 95 3.0 6.0 0.00 0.00 0.00 64 1014.0
20260509231705 70 122 2.0 8.0 0.00 0.00 0.00 64 1014.0
20260509231204 70 123 3.0 8.0 0.00 0.00 0.00 65 1014.1